Date,TemperatureHighF,TemperatureAvgF,TemperatureLowF,DewpointHighF,DewpointAvgF,DewpointLowF,HumidityHigh,HumidityAvg,HumidityLow,PressureMaxIn,PressureMinIn,WindSpeedMaxMPH,WindSpeedAvgMPH,GustSpeedMaxMPH,PrecipitationSumIn
2013-1-1,39,36,32,36,34,31,97,92,86,30.54,30.38,6,2,8,0.00
2013-1-2,44,38,32,36,32,27,96,82,64,30.39,30.22,8,3,10,0.00
2013-1-3,43,38,31,37,31,26,94,78,62,30.22,30.09,19,7,25,0.00
2013-1-4,44,42,39,42,40,37,98,94,92,30.31,30.13,16,4,23,0.00
2013-1-5,46,43,40,42,39,37,96,88,76,30.19,30.06,21,7,28,0.01
2013-1-6,45,43,40,42,40,39,96,91,85,30.16,29.94,23,10,35,0.01
2013-1-7,49,46,42,47,43,40,96,91,81,30.16,29.79,26,13,41,0.08
2013-1-8,51,46,41,48,44,39,97,92,87,30.17,29.65,21,10,29,0.16
2013-1-9,48,43,38,46,40,36,93,88,81,29.95,29.65,23,14,34,0.12
2013-1-10,41,38,36,37,33,26,95,83,61,30.15,29.95,17,8,27,0.04
2013-1-11,38,34,29,29,25,21,94,70,59,30.34,30.15,12,4,16,0.00
2013-1-12,36,31,27,31,26,23,95,84,66,30.47,30.34,8,4,9,0.00
2013-1-13,35,32,27,30,27,25,93,84,77,30.51,30.46,7,3,11,0.00
2013-1-14,37,35,34,34,32,30,93,89,83,30.59,30.48,13,6,21,0.00
2013-1-15,42,38,34,37,34,31,93,86,74,30.73,30.60,4,2,6,0.00
2013-1-16,42,37,33,36,33,30,93,87,80,30.71,30.55,7,2,9,0.00
2013-1-17,41,36,30,39,34,28,98,93,86,30.56,30.31,9,2,12,0.01
2013-1-18,38,36,34,37,36,33,98,98,96,30.37,30.28,8,1,13,0.00
2013-1-19,40,37,33,38,36,32,97,96,91,30.42,30.36,4,1,7,0.00
2013-1-20,44,40,34,41,38,32,98,94,87,30.42,30.30,4,1,6,0.00
2013-1-21,38,34,32,38,34,31,98,97,95,30.30,30.15,5,2,9,0.00
2013-1-22,39,35,33,38,34,32,98,97,95,30.16,29.93,6,2,9,0.00
2013-1-23,46,42,37,43,40,36,97,92,76,30.14,29.82,20,8,28,0.08
2013-1-24,44,42,40,42,40,37,100,91,80,30.22,29.99,21,10,33,0.01
2013-1-25,48,44,40,44,41,38,100,91,79,30.06,29.90,21,4,32,0.00
2013-1-26,44,42,39,41,40,38,96,91,83,30.03,29.85,18,7,25,0.23
2013-1-27,44,40,39,41,39,38,96,95,88,30.05,29.98,17,4,21,0.21
2013-1-28,46,43,40,42,40,38,96,89,85,30.07,29.99,27,16,38,0.27
2013-1-29,47,45,43,44,43,42,98,93,86,30.34,30.05,25,10,36,0.33
2013-1-30,48,45,44,47,45,43,98,98,96,30.39,30.32,9,3,14,0.11
2013-1-31,47,46,45,46,45,44,98,96,94,30.39,30.29,13,6,20,0.03
2013-2-1,47,45,43,45,43,42,97,94,91,30.44,30.36,9,2,15,0.00
2013-2-2,44,42,39,42,40,38,97,94,89,30.42,30.27,6,2,7,0.00
2013-2-3,46,42,40,43,41,39,97,95,90,30.32,30.21,9,4,14,0.05
2013-2-4,47,45,42,44,43,42,98,92,85,30.21,29.84,14,7,19,0.01
2013-2-5,50,46,43,45,42,40,93,88,75,29.91,29.78,20,11,28,0.00
2013-2-6,47,44,42,43,41,39,95,88,80,30.00,29.77,22,12,33,0.00
2013-2-7,46,43,40,42,39,37,94,87,81,30.22,29.74,29,8,41,0.01
2013-2-8,44,42,39,40,39,37,95,89,82,30.32,30.22,10,2,14,0.00
2013-2-9,44,42,41,42,41,40,97,95,93,30.36,30.28,5,1,6,0.00
2013-2-10,44,40,32,40,37,31,97,89,80,30.40,30.34,5,1,6,0.00
2013-2-11,43,42,41,42,41,39,97,95,86,30.36,30.33,10,5,16,0.02
2013-2-12,48,45,42,45,43,41,97,94,88,30.42,30.26,15,5,18,0.01
2013-2-13,47,45,45,44,42,40,94,88,77,30.51,30.32,20,8,24,0.00
2013-2-14,45,44,42,44,43,41,97,96,90,30.58,30.50,13,4,18,0.11
2013-2-15,48,44,42,45,43,41,97,95,89,30.58,30.19,6,2,9,0.00
2013-2-16,46,44,42,43,41,40,97,90,82,30.19,30.11,26,13,43,0.06
2013-2-17,45,42,40,40,39,37,94,87,80,30.25,30.12,19,5,29,0.00
2013-2-18,45,41,38,39,38,36,94,87,77,30.12,29.76,17,9,27,0.00
2013-2-19,45,42,38,41,38,35,92,85,72,30.01,29.74,13,6,19,0.00
2013-2-20,44,42,40,40,39,36,94,89,84,30.05,30.00,15,6,19,0.00
2013-2-21,44,42,40,41,39,37,95,90,82,30.07,29.99,19,7,24,0.01
2013-2-22,46,43,40,42,39,35,95,87,75,30.03,29.63,31,18,46,0.04
2013-2-23,45,43,39,40,38,35,92,81,73,30.38,29.89,28,17,41,0.01
2013-2-24,46,43,40,40,39,37,91,85,79,30.38,29.86,30,16,45,0.01
2013-2-25,46,44,40,40,38,35,95,80,68,30.29,29.84,34,18,51,0.04
2013-2-26,45,42,38,39,37,35,92,83,72,30.34,30.14,23,14,38,0.00
2013-2-27,47,43,40,41,40,38,96,88,72,30.32,30.20,10,4,16,0.02
2013-2-28,50,45,41,48,44,39,100,94,90,30.29,30.17,18,8,26,0.05
2013-3-1,55,51,46,50,48,44,95,89,83,30.29,30.22,23,11,33,0.01
2013-3-2,52,47,42,48,44,37,96,89,75,30.24,30.07,31,15,42,0.04
2013-3-3,47,43,37,40,38,34,92,81,68,30.33,30.17,23,10,36,0.00
2013-3-4,48,40,34,40,35,31,95,82,67,30.33,29.97,8,3,12,0.00
2013-3-5,50,44,40,41,36,31,100,76,59,29.96,29.76,10,3,12,0.06
2013-3-6,43,41,39,41,39,38,96,92,84,29.91,29.63,10,4,16,0.28
2013-3-7,46,42,40,44,41,38,97,96,91,30.13,29.91,8,4,13,0.07
2013-3-8,47,43,39,43,41,38,100,92,80,30.26,30.11,6,2,11,0.00
2013-3-9,49,44,39,44,41,38,96,90,76,30.52,30.26,6,2,10,0.00
2013-3-10,44,43,40,42,41,39,96,92,88,30.51,30.45,5,2,13,0.01
2013-3-11,50,45,40,45,42,39,97,89,71,30.47,30.12,17,4,29,0.01
2013-3-12,52,49,47,50,48,45,100,93,90,30.11,29.99,18,10,23,0.11
2013-3-13,52,50,49,49,48,47,96,93,87,30.16,30.05,16,12,23,0.03
2013-3-14,52,50,46,48,46,45,98,88,78,30.13,30.00,16,8,21,0.02
2013-3-15,56,48,45,51,46,44,100,93,79,30.22,30.14,11,4,14,0.00
2013-3-16,47,45,41,46,42,37,97,91,79,30.14,29.84,32,12,49,0.01
2013-3-17,44,42,40,39,37,34,89,80,70,30.19,29.95,26,18,38,0.00
2013-3-18,47,43,39,40,37,35,93,79,66,30.26,30.09,27,13,39,0.04
2013-3-19,50,42,35,42,36,31,93,81,57,30.25,29.53,23,8,36,0.00
2013-3-20,52,46,40,49,42,33,95,85,69,30.01,29.30,29,18,47,0.01
2013-3-21,43,41,39,38,36,33,88,81,69,30.21,30.01,26,16,35,0.00
2013-3-22,44,40,34,36,33,28,93,78,58,30.40,30.21,18,4,25,0.05
2013-3-23,47,40,35,36,33,30,93,77,55,30.41,30.32,10,4,15,0.00
2013-3-24,52,42,36,39,34,31,88,73,49,30.32,30.15,8,4,13,0.00
2013-3-25,53,45,37,43,38,29,87,75,41,30.16,29.97,7,3,10,0.00
2013-3-26,49,46,42,44,41,37,90,84,74,30.04,29.99,4,1,5,0.00
2013-3-27,53,47,43,46,44,42,97,88,70,30.02,29.97,4,1,5,0.00
2013-3-28,56,48,44,49,45,42,95,89,74,30.17,30.02,8,2,9,0.01
2013-3-29,48,44,42,45,43,40,98,95,86,30.30,30.18,5,2,10,0.00
2013-3-30,52,45,39,50,43,39,99,94,72,30.30,30.12,5,1,10,0.01
2013-3-31,56,50,45,47,44,42,94,81,65,30.12,29.94,4,1,6,0.00
2013-4-1,54,48,45,50,45,42,96,90,73,30.16,29.98,9,3,14,0.00
2013-4-2,50,47,46,46,45,43,96,91,79,30.23,30.16,5,1,11,0.00
2013-4-3,53,48,46,48,46,44,96,92,77,30.22,29.99,5,1,7,0.00
2013-4-4,54,50,46,52,48,44,95,92,88,29.99,29.57,25,6,40,0.03
2013-4-5,53,50,47,50,48,45,97,91,85,29.84,29.66,26,7,36,0.08
2013-4-6,53,48,45,47,45,42,95,88,72,29.91,29.65,22,5,25,0.03
2013-4-7,47,45,42,44,42,41,96,90,79,29.88,29.56,20,12,32,0.34
2013-4-8,53,48,44,48,44,42,94,87,69,30.28,29.88,16,3,28,0.03
2013-4-9,51,48,44,45,43,42,94,84,71,30.35,30.13,16,6,27,0.00
2013-4-10,51,48,46,47,44,43,96,87,75,30.26,29.88,28,20,45,0.05
2013-4-11,49,46,44,43,41,39,92,82,74,30.31,30.21,23,12,29,0.00
2013-4-12,45,43,40,42,40,36,93,87,75,30.20,29.66,34,8,56,0.04
2013-4-13,48,43,39,42,39,36,93,85,77,30.00,29.75,30,12,47,0.04
2013-4-14,48,44,41,42,40,38,94,85,72,30.02,29.95,8,2,15,0.00
2013-4-15,50,45,39,44,41,36,94,87,80,30.20,29.96,10,4,16,0.00
2013-4-16,52,46,38,45,40,34,97,83,54,30.41,30.20,6,2,10,0.00
2013-4-17,50,46,42,45,41,35,89,82,64,30.48,30.41,17,7,26,0.00
2013-4-18,49,46,42,47,44,41,95,92,85,30.46,30.18,14,8,21,0.07
2013-4-19,49,48,46,49,47,45,98,96,91,30.19,30.07,20,7,27,0.13
2013-4-20,51,48,46,48,45,43,94,90,84,30.30,30.19,16,11,25,0.00
2013-4-21,50,46,45,45,42,41,92,86,77,30.40,30.24,17,10,28,0.01
2013-4-22,52,47,40,45,40,32,90,76,50,30.58,30.40,8,2,13,0.00
2013-4-23,53,48,42,46,42,36,87,79,66,30.46,30.29,8,2,11,0.00
2013-4-24,63,51,42,48,43,38,90,76,46,30.35,30.08,10,2,14,0.00
2013-4-25,62,50,46,50,46,44,96,87,57,30.18,30.06,11,4,20,0.00
2013-4-26,59,50,45,51,45,34,100,84,39,30.28,30.18,11,6,16,0.00
2013-4-27,55,50,48,50,46,44,96,87,80,30.23,30.14,12,4,16,0.02
2013-4-28,49,47,45,46,44,41,95,87,79,30.24,29.93,10,4,19,0.00
2013-4-29,48,46,44,44,39,36,95,78,66,30.16,29.92,31,22,45,0.05
2013-4-30,51,45,40,41,37,31,91,75,49,30.47,30.16,23,6,30,0.02
2013-5-1,54,47,40,45,40,35,90,77,60,30.62,30.47,8,3,10,0.00
2013-5-2,54,49,44,47,45,42,95,86,74,30.59,30.42,5,1,10,0.00
2013-5-3,59,52,48,50,47,43,92,83,71,30.43,30.27,8,3,13,0.00
2013-5-4,64,56,51,50,48,43,87,74,47,30.29,30.03,6,2,9,0.00
2013-5-5,68,61,51,51,47,43,77,61,46,30.03,29.80,5,1,9,0.00
2013-5-6,69,57,48,52,49,47,95,74,48,29.88,29.80,11,3,19,0.00
2013-5-7,57,50,47,53,48,46,97,93,85,30.03,29.85,11,4,14,0.00
2013-5-8,56,51,48,52,49,47,97,94,85,30.18,30.03,6,2,10,0.00
2013-5-9,52,49,47,50,47,46,97,94,89,30.25,30.16,10,4,17,0.00
2013-5-10,50,48,45,50,47,45,98,97,91,30.25,30.15,9,3,16,0.00
2013-5-11,61,53,49,54,49,46,93,86,75,30.20,30.02,7,3,10,0.00
2013-5-12,65,56,51,58,55,50,98,94,76,30.08,30.01,10,4,16,0.11
2013-5-13,62,53,46,55,50,43,97,90,66,30.20,29.90,19,5,29,0.19
2013-5-14,56,51,46,48,46,43,94,84,66,30.25,30.15,6,3,11,0.00
2013-5-15,54,50,46,51,47,43,95,89,80,30.15,30.03,6,1,7,0.02
2013-5-16,58,52,49,53,50,48,98,93,81,30.03,29.91,6,2,7,0.02
2013-5-17,55,53,52,53,50,49,96,92,87,30.07,29.95,7,2,10,0.19
2013-5-18,54,52,50,52,50,49,97,94,89,30.30,30.07,8,2,11,0.22
2013-5-19,56,51,48,51,48,47,96,91,79,30.44,30.30,15,6,25,0.01
2013-5-20,53,50,46,49,47,45,94,91,87,30.38,29.94,16,6,26,0.00
2013-5-21,53,48,45,47,45,44,100,90,75,29.94,29.81,15,2,26,0.15
2013-5-22,53,49,46,49,47,45,96,91,80,29.96,29.87,9,3,14,0.09
2013-5-23,56,50,46,47,45,44,97,85,66,30.01,29.94,20,8,29,0.00
2013-5-24,58,50,46,50,46,43,93,87,71,30.06,29.98,7,2,13,0.00
2013-5-25,54,50,47,50,48,46,96,91,82,30.06,30.01,7,3,9,0.03
2013-5-26,58,51,48,55,50,47,99,95,87,30.01,29.95,7,1,11,0.13
2013-5-27,59,54,50,54,51,48,93,89,82,29.95,29.69,19,10,23,0.06
2013-5-28,59,53,50,51,50,47,96,90,73,29.87,29.76,16,8,27,0.00
2013-5-29,50,49,48,49,48,47,98,94,91,29.98,29.70,10,4,14,0.04
2013-5-30,59,52,48,51,48,47,97,89,70,30.26,29.99,14,4,17,0.13
2013-5-31,56,52,49,50,48,47,96,88,76,30.38,30.26,5,2,9,0.00
2013-6-1,57,53,50,51,49,47,94,87,76,30.28,30.10,6,2,9,0.01
2013-6-2,64,55,50,53,50,48,95,83,63,30.12,30.07,9,3,12,0.00
2013-6-3,58,53,50,53,50,49,96,90,81,30.15,30.09,11,4,19,0.00
2013-6-4,61,53,50,55,51,49,97,91,77,30.17,30.07,10,2,15,0.00
2013-6-5,57,53,51,54,52,50,99,96,89,30.14,30.07,14,6,16,0.00
2013-6-6,57,53,50,54,50,47,97,92,82,30.09,30.03,17,4,27,0.01
2013-6-7,61,54,51,54,49,45,92,83,69,30.18,30.05,21,8,26,0.00
2013-6-8,55,52,51,50,49,47,94,87,78,30.21,30.13,19,11,27,0.00
2013-6-9,56,52,50,50,48,47,93,87,79,30.13,30.05,19,13,28,0.00
2013-6-10,56,52,49,52,49,47,94,90,78,30.06,29.92,17,7,25,0.00
2013-6-11,60,54,51,51,48,46,92,82,68,30.11,29.95,11,4,17,0.01
2013-6-12,58,52,49,51,49,48,95,89,74,30.16,30.11,11,3,16,0.00
2013-6-13,55,52,50,51,50,48,95,91,85,30.24,30.16,21,7,29,0.00
2013-6-14,58,52,50,53,50,48,96,92,83,30.25,30.10,12,3,17,0.00
2013-6-15,63,55,49,54,51,48,97,87,68,30.10,29.96,4,1,7,0.00
2013-6-16,58,55,53,53,51,50,93,88,83,30.11,30.01,13,5,19,0.01
2013-6-17,63,56,53,55,52,51,96,86,72,30.11,29.93,17,5,19,0.05
2013-6-18,63,56,53,56,53,51,100,90,71,29.98,29.92,14,6,21,0.00
2013-6-19,59,54,52,53,51,50,94,89,78,30.02,29.93,18,10,19,0.00
2013-6-20,54,52,51,51,50,50,96,94,91,30.13,29.97,17,11,28,0.09
2013-6-21,61,55,51,56,52,50,98,91,76,30.20,30.12,8,3,14,0.01
2013-6-22,66,56,52,56,52,50,96,87,68,30.15,29.89,7,2,11,0.00
2013-6-23,64,57,54,61,54,50,97,92,84,29.89,29.62,7,1,11,0.03
2013-6-24,61,57,54,58,55,52,98,94,87,29.70,29.56,11,2,16,0.12
2013-6-25,66,58,55,59,55,53,95,90,74,29.83,29.66,18,8,24,0.03
2013-6-26,64,59,56,59,56,53,94,89,81,30.09,29.83,18,7,25,0.00
2013-6-27,69,60,56,63,58,54,97,92,79,30.23,30.06,18,6,23,0.12
2013-6-28,65,58,51,61,56,50,98,95,86,30.23,30.09,6,1,9,0.00
2013-6-29,64,60,58,61,57,54,96,89,80,30.12,30.03,7,2,16,0.00
2013-6-30,72,61,55,63,57,54,96,86,73,30.05,29.90,12,3,17,0.00
2013-7-1,60,56,53,57,55,53,100,95,87,30.07,29.93,13,6,17,0.00
2013-7-2,59,55,53,56,53,51,100,93,79,30.14,30.07,20,11,30,0.00
2013-7-3,58,55,53,55,52,51,95,91,86,30.19,30.08,20,9,27,0.00
2013-7-4,66,57,53,57,53,52,96,87,68,30.14,30.06,16,8,20,0.00
2013-7-5,68,58,53,58,54,52,96,86,69,30.06,29.97,13,3,15,0.00
2013-7-6,66,57,52,56,53,51,96,88,71,30.01,29.90,12,3,15,0.00
2013-7-7,62,56,53,57,54,52,97,91,79,29.97,29.91,13,4,14,0.00
2013-7-8,64,56,52,59,54,52,97,94,82,30.12,29.97,13,5,18,0.00
2013-7-9,58,53,50,55,52,50,99,96,89,30.15,30.03,13,6,17,0.00
2013-7-10,57,54,52,54,52,49,97,90,84,30.10,29.98,21,14,31,0.00
2013-7-11,60,55,53,52,51,49,94,85,72,30.11,30.00,24,11,31,0.00
2013-7-12,60,54,52,53,51,50,95,89,77,30.13,30.03,14,6,20,0.00
2013-7-13,61,55,52,54,51,50,94,88,75,30.23,30.13,11,3,13,0.00
2013-7-14,59,54,52,54,52,50,97,91,77,30.16,30.03,19,5,25,0.00
2013-7-15,69,59,52,54,52,49,96,78,49,30.09,29.94,9,3,11,0.00
2013-7-16,73,65,57,56,52,49,80,64,45,29.94,29.83,8,2,13,0.00
2013-7-17,70,62,56,58,55,50,91,79,49,30.22,29.88,15,6,20,0.00
2013-7-18,61,57,54,56,54,53,95,91,85,30.26,30.16,9,5,13,0.00
2013-7-19,58,55,53,56,54,52,100,95,91,30.20,30.08,13,9,19,0.00
2013-7-20,58,54,52,56,53,52,98,96,90,30.11,30.00,15,6,20,0.00
2013-7-21,59,54,52,57,53,51,99,96,91,30.01,29.94,11,4,14,0.00
2013-7-22,61,54,51,59,53,50,99,97,90,30.09,29.98,11,4,15,0.00
2013-7-23,56,52,51,54,52,50,99,98,94,30.11,30.02,13,5,22,0.00
2013-7-24,57,52,49,56,51,49,100,97,89,30.10,30.05,12,7,16,0.00
2013-7-25,132,70,50,58,-36,-100,99,39,87,30.15,30.07,14,7,18,0.00
2013-7-26,60,54,51,54,52,50,97,92,76,30.18,30.10,14,5,19,0.00
2013-7-27,68,57,52,56,52,50,95,85,62,30.18,30.02,9,3,13,0.00
2013-7-28,70,58,52,58,53,50,96,86,67,30.03,29.96,11,5,17,0.00
2013-7-29,55,53,51,54,52,50,97,95,92,30.04,29.98,6,2,7,0.00
2013-7-30,56,53,51,55,52,50,99,98,94,30.17,30.03,7,3,10,0.00
2013-7-31,105,57,51,100,56,51,99,98,98,30.15,30.14,7,5,11,0.00
2013-8-1,65,54,51,62,53,51,99,96,78,30.08,30.03,10,3,17,0.00
2013-8-2,58,57,56,56,56,56,97,96,95,30.16,30.14,2,0,4,0.06
2013-8-3,59,56,54,56,54,53,97,95,88,30.17,30.10,5,2,9,0.00
2013-8-4,63,54,51,61,53,50,99,96,90,30.10,29.99,7,3,12,0.00
2013-8-5,56,52,50,54,51,50,99,97,92,30.06,29.97,11,5,14,0.00
2013-8-6,56,52,49,55,51,49,99,98,94,30.05,29.96,10,5,16,0.00
2013-8-7,58,52,50,56,52,50,99,97,91,30.05,29.98,11,5,15,0.00
2013-8-8,58,54,52,57,53,51,99,97,93,30.06,29.98,15,7,18,0.00
2013-8-9,58,53,51,57,53,51,100,98,94,29.99,29.87,13,5,17,0.00
2013-8-10,59,55,52,58,54,51,99,95,91,30.06,29.90,10,4,17,0.02
2013-8-11,61,55,53,58,53,52,97,94,82,30.10,30.04,10,3,15,0.01
2013-8-12,60,56,52,56,54,52,98,93,86,30.10,30.04,10,4,15,0.00
2013-8-13,62,58,54,56,54,51,97,87,76,30.13,29.96,9,2,13,0.00
2013-8-14,67,59,53,62,56,50,97,90,73,29.97,29.92,9,3,15,0.15
2013-8-15,62,59,54,61,58,53,98,97,94,30.02,29.94,8,1,12,0.01
2013-8-16,71,61,56,65,58,55,98,93,78,30.02,29.98,12,3,16,0.00
2013-8-17,68,61,56,61,57,53,92,87,78,30.10,30.01,10,4,16,0.00
2013-8-18,69,60,55,60,56,52,96,88,69,30.15,30.09,11,6,17,0.00
2013-8-19,65,58,54,58,55,52,97,89,77,30.14,30.09,18,6,25,0.00
2013-8-20,58,54,50,55,52,50,98,94,84,30.21,30.12,16,4,18,0.00
2013-8-21,69,58,51,58,53,49,95,82,60,30.13,29.97,5,2,12,0.00
2013-8-22,71,59,52,59,53,50,97,82,57,29.98,29.82,9,2,14,0.00
2013-8-23,66,59,52,60,56,52,99,90,71,29.91,29.85,11,4,15,0.00
2013-8-24,64,58,54,59,56,53,97,93,78,29.95,29.90,12,2,13,0.01
2013-8-25,58,55,53,54,52,50,96,90,78,29.97,29.89,8,1,14,0.00
2013-8-26,71,60,52,60,54,47,89,79,60,29.94,29.83,18,6,26,0.00
2013-8-27,72,60,54,61,56,52,97,89,66,29.94,29.83,17,7,25,0.09
2013-8-28,62,58,55,60,57,54,98,97,91,29.91,29.84,5,1,9,0.01
2013-8-29,71,64,58,64,61,57,99,92,79,29.99,29.86,22,10,33,0.06
2013-8-30,69,61,57,60,58,54,98,89,73,30.17,29.99,8,3,13,0.00
2013-8-31,63,58,53,58,55,52,97,90,78,30.12,29.86,4,1,9,0.00
2013-9-1,64,60,56,58,56,53,93,85,79,29.90,29.83,9,2,16,0.00
2013-9-2,66,60,55,59,56,53,95,88,72,29.96,29.87,9,3,15,0.00
2013-9-3,63,59,56,61,58,55,100,96,86,30.06,29.95,5,2,10,0.12
2013-9-4,63,57,53,62,56,52,100,97,92,30.08,30.04,10,1,13,0.01
2013-9-5,64,57,53,60,56,52,98,95,84,30.08,29.93,12,3,15,0.38
2013-9-6,68,62,55,64,60,53,98,95,84,30.11,29.95,9,4,16,0.11
2013-9-7,63,60,56,61,59,54,98,95,92,30.12,30.05,4,2,9,0.00
2013-9-8,59,56,53,58,55,52,100,96,92,30.13,30.06,7,3,10,0.00
2013-9-9,58,54,52,57,54,51,99,99,96,30.10,30.02,8,3,10,0.00
2013-9-10,66,58,51,60,55,50,99,91,76,30.04,29.92,5,2,7,0.01
2013-9-11,74,65,58,61,57,54,88,76,59,29.98,29.90,5,2,6,0.00
2013-9-12,58,55,53,57,54,52,99,97,88,30.02,29.93,9,5,16,0.00
2013-9-13,59,56,54,59,56,54,99,99,98,29.99,29.90,11,2,15,0.00
2013-9-14,57,54,51,57,54,51,99,99,98,29.91,29.77,3,1,5,0.01
2013-9-15,58,55,50,58,55,50,100,99,99,29.82,29.73,7,2,12,0.18
2013-9-16,61,57,54,60,56,52,100,97,91,29.94,29.81,15,4,16,0.09
2013-9-17,57,54,52,54,52,50,96,93,90,29.95,29.88,15,5,17,0.00
2013-9-18,65,58,52,54,52,49,92,80,64,30.09,29.95,12,4,20,0.00
2013-9-19,74,59,52,54,51,48,94,75,41,30.07,29.76,13,4,17,0.00
2013-9-20,66,57,51,56,52,47,94,83,65,29.76,29.61,12,4,16,0.01
2013-9-21,63,57,53,58,54,52,98,92,79,29.73,29.64,10,2,12,0.00
2013-9-22,60,56,53,56,53,51,96,90,80,29.70,29.50,27,10,42,0.01
2013-9-23,55,53,50,53,51,48,96,91,79,29.97,29.71,11,4,14,0.08
2013-9-24,58,52,49,52,50,47,97,91,75,29.97,29.86,9,4,12,0.13
2013-9-25,56,52,49,51,49,47,97,90,75,30.04,29.88,13,3,22,0.03
2013-9-26,57,51,47,52,48,46,97,91,78,30.14,30.04,7,3,9,0.00
2013-9-27,56,53,50,53,51,48,96,93,88,30.12,29.83,16,6,23,0.05
2013-9-28,59,54,51,57,53,49,97,94,92,29.82,29.28,23,12,35,0.29
2013-9-29,55,53,51,52,50,48,95,91,81,29.50,29.10,27,14,42,0.10
2013-9-30,56,51,48,52,48,45,95,90,79,29.89,29.34,16,7,26,0.08
2013-10-1,55,50,47,49,47,45,98,88,73,30.11,29.89,17,9,22,0.05
2013-10-2,51,50,49,49,48,46,96,93,88,30.20,30.06,16,6,22,0.01
2013-10-3,54,50,46,50,47,43,96,91,84,30.47,30.20,4,1,8,0.00
2013-10-4,55,48,42,52,46,41,98,94,82,30.50,30.37,6,2,10,0.01
2013-10-5,58,53,50,51,49,47,94,86,71,30.38,30.15,7,2,10,0.00
2013-10-6,65,54,47,56,49,45,97,86,57,30.15,29.81,21,5,27,0.00
2013-10-7,57,53,51,52,50,48,95,89,78,30.01,29.83,21,6,29,0.16
2013-10-8,54,52,50,50,48,45,92,85,79,30.11,29.97,23,9,31,0.00
2013-10-9,54,49,42,48,45,40,95,85,69,30.16,29.97,5,2,10,0.00
2013-10-10,52,50,48,50,48,45,97,94,83,30.09,29.95,5,2,7,0.01
2013-10-11,51,48,43,49,46,42,98,95,90,30.17,30.09,4,1,6,0.01
2013-10-12,54,50,47,51,48,46,97,94,89,30.24,30.09,6,2,11,0.05
2013-10-13,52,49,46,50,47,43,96,93,85,30.39,30.24,9,1,12,0.00
2013-10-14,53,48,45,50,47,44,97,94,88,30.46,30.39,5,1,7,0.01
2013-10-15,52,48,44,50,47,43,100,95,92,30.42,30.20,6,1,6,0.01
2013-10-16,53,50,47,51,49,46,98,95,89,30.23,30.18,5,2,10,0.00
2013-10-17,52,48,42,50,47,41,99,96,90,30.31,30.22,5,1,6,0.01
2013-10-18,47,45,42,46,44,42,99,98,96,30.28,30.18,4,1,7,0.01
2013-10-19,48,46,43,48,46,42,99,99,98,30.23,30.18,4,1,6,0.00
2013-10-20,48,47,46,48,47,46,100,97,96,30.24,30.18,5,1,6,0.01
2013-10-21,48,47,46,48,46,45,99,98,97,30.20,30.13,4,2,7,0.00
2013-10-22,47,46,44,47,46,44,99,99,98,30.16,30.06,4,2,6,0.01
2013-10-23,49,45,40,49,44,39,100,99,98,30.08,30.01,4,1,5,0.00
2013-10-24,48,46,45,48,46,45,100,99,98,30.14,30.05,5,3,7,0.01
2013-10-25,53,49,46,52,48,45,100,98,93,30.34,30.14,10,5,14,0.00
2013-10-26,52,40,-2,51,20,-100,100,78,94,30.36,30.22,5,2,8,0.00
2013-10-27,58,24,-4,53,-33,-100,100,36,52,30.22,29.96,18,6,33,0.16
2013-10-28,55,52,46,43,39,35,74,62,53,29.99,29.93,18,11,29,0.00
2013-10-29,54,47,41,44,41,36,94,79,65,30.04,29.97,7,2,11,0.00
2013-10-30,52,48,42,49,44,40,93,87,79,30.13,30.04,15,7,22,0.00
2013-10-31,53,50,48,50,48,45,95,91,80,30.27,30.05,15,7,20,0.01
2013-11-1,53,51,49,51,49,48,96,93,89,30.29,29.80,10,3,13,0.02
2013-11-2,54,50,44,50,46,41,97,88,77,29.87,29.35,31,18,48,0.20
2013-11-3,49,46,40,45,41,37,93,83,73,30.13,29.87,18,3,21,0.00
2013-11-4,46,42,36,41,39,35,96,87,77,30.21,30.03,12,5,19,0.00
2013-11-5,47,45,43,46,43,40,97,94,87,30.28,30.03,13,2,17,0.01
2013-11-6,49,47,44,46,45,43,97,92,85,30.34,29.97,18,4,31,0.02
2013-11-7,52,49,48,50,47,45,98,93,87,29.98,29.66,26,15,40,0.08
2013-11-8,52,49,45,48,45,43,94,87,79,30.16,29.98,20,5,29,0.00
2013-11-9,48,46,44,46,43,41,100,91,82,30.16,30.10,6,2,11,0.00
2013-11-10,48,46,44,46,44,43,95,92,88,30.19,30.14,7,2,10,0.00
2013-11-11,56,50,44,48,46,43,97,86,66,30.18,29.99,13,4,18,0.01
2013-11-12,57,54,50,52,49,43,97,85,61,30.34,29.98,23,11,35,0.00
2013-11-13,55,50,48,51,49,47,98,94,85,30.45,30.33,7,2,9,0.01
2013-11-14,49,48,46,47,46,43,97,95,90,30.33,30.08,12,6,21,0.03
2013-11-15,48,45,43,45,42,40,96,90,78,30.08,29.32,32,9,43,0.29
2013-11-16,48,46,46,42,40,36,86,77,66,29.76,29.32,30,16,39,0.00
2013-11-17,51,46,42,46,42,38,92,87,74,29.90,29.76,14,4,17,0.00
2013-11-18,50,46,44,49,45,42,98,97,92,29.90,29.52,11,2,18,0.01
2013-11-19,46,43,39,46,34,23,97,71,47,30.10,29.57,24,11,34,0.11
2013-11-20,41,38,33,33,30,26,80,72,63,30.55,30.09,15,4,21,0.00
2013-11-21,40,35,29,32,29,24,85,77,63,30.71,30.55,7,3,8,0.00
2013-11-22,43,37,30,36,32,26,92,81,71,30.70,30.49,9,2,13,0.00
2013-11-23,45,40,32,41,36,30,93,87,78,30.48,30.24,5,2,7,0.00
2013-11-24,46,41,34,43,39,33,97,93,86,30.27,30.20,4,1,6,0.00
2013-11-25,43,39,35,42,38,34,100,96,94,30.34,30.27,6,2,7,0.01
2013-11-26,45,39,34,43,38,33,98,96,90,30.30,30.12,9,2,13,0.01
2013-11-27,48,44,40,44,42,38,97,92,84,30.12,30.00,5,1,10,0.00
2013-11-28,50,43,37,46,42,36,98,94,86,30.19,30.05,8,3,12,0.01
2013-11-29,47,46,44,46,44,43,97,95,92,30.32,30.19,8,4,13,0.04
2013-11-30,49,47,45,47,46,44,98,95,91,30.32,30.06,12,7,15,0.01
2013-12-1,52,48,42,50,46,36,100,92,76,30.05,29.72,32,13,39,0.24
2013-12-2,43,40,34,38,34,24,93,80,66,30.10,29.79,33,14,40,0.02
2013-12-3,38,34,30,27,24,19,77,65,56,30.35,30.11,12,6,17,0.00
2013-12-4,36,31,26,24,20,17,73,63,56,30.39,30.33,8,4,10,0.00
2013-12-5,33,29,25,28,24,20,92,83,72,30.35,30.23,7,3,10,0.00
2013-12-6,30,26,24,21,14,7,77,59,44,30.31,30.21,12,6,21,0.00
2013-12-7,29,24,21,15,10,4,71,55,39,30.45,30.30,9,4,15,0.00
2013-12-8,33,28,21,23,21,14,84,75,63,30.59,30.43,8,4,11,0.00
2013-12-9,33,31,25,30,26,21,88,83,76,30.59,30.50,11,7,16,0.00
2013-12-10,38,35,33,34,33,29,94,90,85,30.50,30.44,10,6,15,0.00
2013-12-11,39,36,32,34,32,29,93,86,76,30.45,30.17,8,3,10,0.00
2013-12-12,45,40,34,41,37,31,95,90,76,30.18,29.99,20,8,25,0.01
2013-12-13,46,44,42,45,42,40,98,96,94,30.43,30.13,10,5,14,0.00
2013-12-14,48,46,43,46,44,42,100,94,90,30.43,30.30,16,6,25,0.00
2013-12-15,48,47,45,47,45,43,96,93,90,30.46,30.31,14,7,18,0.00
2013-12-16,49,44,39,44,42,37,96,91,77,30.51,30.28,10,4,12,0.00
2013-12-17,43,40,38,42,39,36,98,96,94,30.28,30.12,13,6,16,0.01
2013-12-18,46,42,35,43,37,28,95,84,73,30.22,30.04,21,10,33,0.04
2013-12-19,38,36,35,32,26,19,86,66,48,30.37,30.21,15,4,27,0.00
2013-12-20,39,35,31,38,34,31,98,97,87,30.21,29.72,15,9,24,0.19
2013-12-21,41,39,37,41,38,36,98,98,96,30.18,29.88,5,2,7,0.09
2013-12-22,47,43,40,47,43,40,99,98,98,30.30,30.18,12,4,19,0.21
2013-12-23,49,29,-14,48,2,-100,99,65,82,30.54,30.11,31,14,40,0.12
2013-12-24,45,43,38,41,40,36,94,88,82,30.64,30.54,8,2,11,0.00
2013-12-25,42,38,34,38,36,32,100,91,86,30.56,30.41,8,3,11,0.00
2013-12-26,44,41,37,41,39,36,100,92,83,30.42,30.22,9,3,13,0.00
2013-12-27,47,42,37,45,41,35,98,95,90,30.39,30.09,22,8,39,0.08
2013-12-28,45,43,38,43,41,37,96,93,89,30.55,30.39,7,1,11,0.00
2013-12-29,42,40,37,41,39,35,100,97,94,30.51,30.34,8,3,13,0.01
2013-12-30,44,41,39,42,40,38,98,97,94,30.35,30.13,11,3,16,0.01
2013-12-31,45,43,41,44,42,40,98,97,94,30.40,30.19,10,4,14,0.01
2014-1-1,48,24,5,100,-22,-100,100,54,96,30.43,30.27,4,2,6,0.02
2014-1-2,6,1,-16,-100,-100,-100,0,0,100,30.28,29.91,28,9,39,0.26